Regional Weather Roundup
Issued by NWS

Home | Current Version | Previous Version | Graphics & Text | Print | Product List | Glossary On
Versions: 1 2 3 4 5 6 7 8 9 10 11 12 13 14 15 16 17 18 19 20 21 22 23 24 25 26 27 28
000
ASUS45 KBOU 230110
RWRCO

WEATHER ROUNDUP FOR COLORADO
NATIONAL WEATHER SERVICE DENVER/BOULDER CO
700 PM MDT TUE MAY 22 2018

NOTE: "FAIR" INDICATES FEW OR NO CLOUDS BELOW 12000 FEET WITH NO
SIGNIFICANT WEATHER AND/OR OBSTRUCTIONS TO VISIBILITY.

COZ001>005-013-030-031-230200-
...NORTHWEST COLORADO...

CITY           SKY/WX    TMP DP  RH WIND       PRES   REMARKS
CRAIG          LGT RAIN  54  47  77 S8        30.08R
HAYDEN         HVY RAIN  51  47  86 SW9       30.12R FOG
MEEKER         PTSUNNY   56  46  69 SE5       30.04F
RANGELY        FAIR      60  45  56 E8        29.99F
RABBIT EARS PA TSTM      36  36 100 W7        30.25R VSB 1/4
STEAMBOAT SPGS CLOUDY    49  48  95 S5        30.12R
WALDEN         PTSUNNY   54  37  54 SW12      30.11R
$$

COZ006>008-011-230200-
...WEST CENTRAL VALLEYS...

CITY           SKY/WX    TMP DP  RH WIND       PRES   REMARKS
GRAND JUNCTION PTSUNNY   64  46  52 CALM      29.95S
MONTROSE       LGT RAIN  59  44  57 CALM      30.00F
EAGLE          FAIR      62  40  44 NW7       30.06S
RIFLE          FAIR      59  41  51 S3        30.02R
DELTA          FAIR      62  48  59 NE5       29.96F
NUCLA          FAIR      64  36  34 NE6       29.96F
$$

COZ017>023-064>068-230200-
...SOUTHWEST COLORADO...

CITY           SKY/WX    TMP DP  RH WIND       PRES   REMARKS
DURANGO        FAIR      71  20  14 E8        29.96F
CORTEZ         FAIR      72  26  18 S8        29.93F
PAGOSA SPRINGS FAIR      68  17  14 SW9G18    30.05F
TELLURIDE      PTSUNNY   55  34  46 SE3       30.15F
WOLF CREEK PAS FAIR      43  27  52 S16G28    30.32F
$$

COZ009-010-012-014-032>034-037-058>063-230200-
...CENTRAL COLORADO...

CITY           SKY/WX    TMP DP  RH WIND       PRES   REMARKS
ASPEN          LGT RAIN  55  39  54 SE17G28   30.10R
BUENA VISTA    LGT RAIN  59  32  36 W6        30.05F
COPPER MTN     FAIR      45  32  61 S9        30.31S
BERTHOUD PASS  FAIR      32  23  69 S8        30.30F WCI  25
COTTONWOOD PAS PTSUNNY   59  37  44 N5        30.17S
GUNNISON       FAIR      65  30  27 W6        30.05F
GRANBY         CLOUDY    56  39  53 SW6       30.11R
KREMMLING      LGT RAIN  54  48  82 N3        30.10F
LEADVILLE      CLOUDY    50  35  56 W7        30.17S
MONARCH PASS   FAIR      45  32  61 MISG      30.39S
SALIDA         PTSUNNY   66  35  31 E9        30.09R
SUNLIGHT       CLOUDY    41  37  87 SW12G18   30.26F THUNDER FOG
WILKERSON PASS FAIR      48  30  49 S5        30.28S
$$

COZ069>075-230200-
...SAN LUIS VALLEY/SANGRE DE CRISTO MOUNTAINS...

CITY           SKY/WX    TMP DP  RH WIND       PRES   REMARKS
ALAMOSA        FAIR      65  36  34 S21G31    30.04R
DEL NORTE      FAIR      62  29  28 W24       30.07R
LA VETA PASS   FAIR      55  27  33 S20G30    30.32R
SAGUACHE       NOT AVBL
$$

COZ035-036-038>040-230200-
...NORTHERN COLORADO FRONT RANGE...

CITY           SKY/WX    TMP DP  RH WIND       PRES   REMARKS
DENVER INTL AP LGT RAIN  76  42  29 W14G23    29.84R
AURORA         MOSUNNY   72  50  44 NW8       29.86S
FRONT RANGE AP PTSUNNY   79  36  21 S8        29.85S
ERIE MUNI ARPT FAIR      62  53  71 N7        29.92R
BOULDER MUN AP FAIR      63  48  59 NW8       29.88R
CENTENNIAL     FAIR      72  45  37 NW17G30   29.88R
BROOMFIELD     PTSUNNY   66  48  52 NW13      29.91R
FORT COLLINS   LGT RAIN  57  51  80 N13       29.90F
LONGMONT       FAIR      66  49  53 N15G21    29.89S
$$

COZ041-046-047-076>085-087-088-230200-
...PIKES PEAK/PALMER DIVIDE AND SOUTHERN FOOTHILLS...

CITY           SKY/WX    TMP DP  RH WIND       PRES   REMARKS
COLO. SPRINGS  FAIR      75  34  22 SE16      29.92R
A. F. ACADEMY  FAIR      72  33  24 SE20      29.93R
SCHRIEVER AFB  NOT AVBL
CHEYENNE MTN   FAIR      68  34  28 S6        29.93R
ELLICOTT         N/A    N/A N/A N/A SE13      29.91F
FALCON         FAIR      71  31  22 SE16      29.98S
FORT CARSON    FAIR      74  34  23 S10       29.88R
LIMON          FAIR      73  38  27 SE18G25   29.88F
MONUMENT HILL  FAIR      68  32  26 S13       29.98S
CANON CITY     FAIR      81  34  18 SW10      29.85S
WALSENBURG     MOCLDY    75  37  25 S7        29.92R
TRINIDAD       FAIR      72  38  29 SW25G37   29.96R
$$

COZ042>045-048>051-090-091-230200-
...NORTHEAST COLORADO...

CITY           SKY/WX    TMP DP  RH WIND       PRES   REMARKS
GREELEY ARPT   FAIR      64  54  68 N13       29.86R
AKRON          FAIR      75  52  44 SE18G32   29.86S
BURLINGTON     FAIR      74  51  44 S18G30    29.91R
WRAY           FAIR      75  50  41 S12       29.87R
YUMA           FAIR      73  14  10 SE16      29.86S
STERLING       FAIR      77  54  44 SE14      29.83S
HOLYOKE        FAIR      79  50  36 S22G28    29.87R
FORT MORGAN    FAIR      74  44  34 SE15G22   29.83F
$$

COZ086-089-092>099-230200-
...SOUTHEAST COLORADO...

CITY           SKY/WX    TMP DP  RH WIND       PRES   REMARKS
PUEBLO         FAIR      85  31  14 S9        29.80S
LA JUNTA       PTSUNNY   76  55  48 E14       29.83R THUNDER
LAMAR          FAIR      80  51  36 S22G33    29.84R
SPRINGFIELD      N/A     76  52  43 S23G35    29.93R
$$




USA.gov is the U.S. government's official web portal to all federal, state and local government web resources and services.